[新闻] 美参议院通过提案限制特朗普关税权力

看板 Stock
时间
留言 则留言,100人参与讨论
推嘘 81推 18嘘 79→
加入最爱文章备份
1.原文连结: https://wallstreetcn.com/articles/3358728 2.原文内容: 美参议院通过提案限制特朗普关税权力 作者: 一财网 2018-07-12 12:13 美国国会参议院11日以88:11的压倒性表决结果通过一项非约束性提案,寻求限制特朗加 征进口商品关税的总统权力。这是美国国会首次对特朗普行使总统关税权力作出的立法行 动。 当地时间11日,美国国会参议院以88:11的压倒性表决结果通过了一项针对特朗普政府贸 易政策的非约束性提案,寻求限制特朗普以国家安全为由加征进口商品关税的总统权力。 这是美国国会首次对特朗普行使总统关税权力作出的立法行动。在88票的赞成票中有39位 共和党参议员、49位民主党参议员。 田纳西州共和党参议员柯尔克(Bob Corker)在投票现场告诉第一财经记者,11日的程序性 投票通过后,下一步就是希望能够通过国会立法,让国会重新获得征收和管理关税的权力 。 华盛顿政治分析人士表示,尽管11日的投票不能立即阻止特朗普对多国发起的贸易战,却 非常清晰地向特朗普政府发出一个信号,即虽然国会参众两院由共和党主导,但不会对特 朗普政府的关税和贸易政策坐视不管。 限制特朗普滥用权力 “任何支持参议院(在关税和贸易问题上)发挥作用的人都应该支持这项投票。”柯尔克 在投票前向其他参议员表示,“这是让参议院和我们的国家走向更好方向所迈出的一小步 。” 此前,柯尔克和宾夕法尼亚州共和党参议员图米(Patrick Toomey)曾共同起草一项提案, 要求美国总统加征任何关税的计划都应至少60天提前递交给国会,经国会批准后才能生效 。 亚利桑那州共和党参议员弗雷克(Jeff Flake)11日在参议院投票现场表示:“我们应该 控制总统滥用这项权力,恢复宪法赋予国会的相关权力。“ 本月6日开始,美国对340亿美元中国产品加征25%的关税。而就在前述提案投票的前一天 ,美国贸易代表办公室公布了对另外2000亿美元中国输美产品加征10%关税的清单。 对此,中国商务部新闻发言人11日发表谈话指出,美方以加速升级的方式公布征税清单, 是完全不可接受的,中方对此表示严正抗议。美方的行为正在伤害中国,伤害全世界,也 正在伤害其自身,这种失去理性的行为是不得人心的。 美国国会多位共和党参议员的立法助手11日告诉第一财经记者,由于8月正是美国中期选 举造势在各地进入白热化的时期,特朗普政府10日公布拟对华2000亿美元输美产品加征关 税清单,将进一步加剧他和国会共和党人之间的矛盾。 众议院拨款委员会主席布莱迪(Kevin Brady)本周表示,中美两国如果陷入长期贸易摩擦 ,全球经济都会受到影响。布莱迪表示,当美国总统以国家安全为由加征关税时,众议院 也可以作出行动对他的权力进行限制,目前众议院拟先“观望”特朗普的贸易政策。 美国参议院金融委员会主席哈奇(Orrin Hatch)表示,特朗普政府本周新提出的对中国产 品加征关税的措施不仅鲁莽冲动,而且完全“漫无目标”,没有下一步的退出计划。 “用商人思维在谈判” 美国参议院11日的投票虽然不能强迫特朗普政府作出任何政策上的改变,却被看作是国会 共和党人发出的象征性谴责。此前共和党人曾不断批评特朗普政府的贸易举措,却没有效 果,此次也被视为共和党对特朗普发起贸易战提出的警告。 艾奥瓦州共和党参议员格莱斯利(Charles Grassley)对特朗普政府的贸易政策提出强烈批 评,他表示特朗普的贸易政策已经严重影响到了艾奥瓦州,特别是最近对中国产品加征关 税的做法更是极大地危害到了艾奥瓦州从事大豆和玉米种植的农民。 “首先,我是一个自由贸易主义者。如果我们真能实现一种对等状态的话,谁不愿意这样 做?“格莱斯利就特朗普向全世界发起的贸易战评论道,”但他(特朗普)是用商人的思 维在谈判。问题是,如果他能把谈判的对方逼到悬崖而对方不跳下去的话,那我们或许能 拿到一个更好的谈判协议。但如果对方跳下去的话,后果将是灾难性的。” 格莱斯利说,现在艾奥瓦州的大豆和玉米行业的状况就是灾难性的,价格已经跌到“我们 都看得到的水平”。他表示:“所以,贸易摩擦的后果是非常灾难性的,我每天都感到非 常非常紧张。” 3.心得/评论: 我每天都感到非常非常紧张 昨天多军紧张 今天空军紧张 明天看川皇嘴巴决定哪边紧张 这盘喜欢洗双巴 欧印国巨,爽订宾利 还是 空爆国巨,爽订宾利 建议看盘软体删掉 一个月后见真章 -- 女生喜欢看一个人慢慢步向死亡的电影 男生喜欢看一堆人瞬间死掉的电影 而我喜欢看女生不会死却一直说她快死掉的电影 \( ̄︶ ̄)/ -- ※ 发信站: 批踢踢实业坊(ptt.cc), 来自: 182.235.148.216 ※ 文章网址: https://www.ptt.cc/bbs/Stock/M.1531377362.A.576.html
1FEDFR: 最近公园成员轮替真快…… 07/12 14:37
※ 编辑: roxiang (182.235.148.216), 07/12/2018 14:38:53
2Farmanisir: 好像找不太到英文版 07/12 14:37
3FRuRu5566: 议员背后的财团们也不是吃素的~ 07/12 14:38
4Fadsl12367: 要喷了 07/12 14:40
5Ff204137: 忽多忽空 迟早毕业 07/12 14:40
6Fpeace1way: 新闻是真的话,空方表示:........ 07/12 14:40
7Fhijacker: 这些议员收了老共多少钱 川普该去查一查了 07/12 14:41
8Fzick8932511: 88:11.....自己人都不支持了 07/12 14:42
9Ffabienryan: 爽订CX-5 07/12 14:42
10Fbook2368: 特朗普空单刚布马上吃笋? 07/12 14:43
11Fting74942: 川普 07/12 14:44
12Fyee: 川普下一步:我要求FBI查查投下赞成票的人是否有收中国游说 07/12 14:44
13Fyee: 资金 07/12 14:44
14Ftutuan: 有英文版的 google "trump tariff senate" 07/12 14:44
15Fsagarain: 美国岳飞 07/12 14:44
16FYOTO0282: 基本美中贸易战开打已成定局,总体环境不变总要反弹逃命 07/12 14:45
17Fethan0419: 不相信川普会赔钱 一定是多单也布好了 07/12 14:45
18FYOTO0282: 指数拉越高,出来混总要还的 07/12 14:45
19Fpipipapa22: 再放话呀!自己玩死自己了吼~ 07/12 14:46
20Ftutuan: 也有可能是为了欧加日等盟国吧 07/12 14:46
21Fpeace1way: 不过这新闻也说这投票没约束力,川普会理吗? 07/12 14:47
22Fwedwu: 孤乃公园侯,可跟孤预定观河第一排! 07/12 14:47
23Ftctv2002: 川普炒股权利被限缩了吗 07/12 14:48
24FFizban: 参议院最佳猪队友 07/12 14:48
25Fmecca: 川宝不能放消息炒股了 哭哭 07/12 14:50
26Fkipi91718: XDDDDD 07/12 14:51
27Fditzydoo: 糟糕 吱吱又不能靠川普自慰来当安眠药了 07/12 14:52
28Fodin711022: 特朗普?是指川普?这翻译? 07/12 14:52
29Fdivad: 自肥方案 干脆所有决策都要参议院同意 07/12 14:52
30Favaricious: 川普不会被罢免吧?跟参议院呛起来 07/12 14:52
31Fdennistao: 宾利或成最大赢家是不是? 07/12 14:52
32Ftoddy5401: 应该很多人有接收中国的好处 可惜 快把中国搞倒了 07/12 14:55
33Fif2: 被ban了 07/12 14:55
34Fkrthree: 不管有没有通过。中国或成最大赢家 07/12 14:56
35Fbitlife: 川普:让我们欢迎麦卡锡二世参议员 参议员们:我们立刻撤 07/12 14:57
36Fbryanyang507: 没约束力 川普先干下去你那他有办法吗 07/12 14:57
37Ftctv2002: 内文说 不能强迫川普政府的决策 那这投票有什么意义 07/12 14:57
38Fethan0419: 先拉一波再说 有没有意义不重要 07/12 15:01
39Fwake7078: 宾利销售员:你听过国巨吗 07/12 15:01
40Froxiang: 宾利销售员:最近很多人来找我订车 都提到国巨 07/12 15:04
41FKuoJia: 多空输赢都会买宾利 那干嘛不买宾利家股票 07/12 15:04
42Fa29976137: 民主政治的问题 07/12 15:05
43Fbanbee100: 没有约束力的东西…你以为川普会鸟你吗? 07/12 15:06
44Fhbj1941: 一堆白痴,谁是背骨仔给看光光,扯后腿的等著川普算后帐 07/12 15:07
45Fdennistao: 敢跟小川作对真的很勇敢,先不论有没有办法通过 07/12 15:07
46Fkutkin (5留言): 投票投给选民看,不然选民会骂 07/12 15:07
47Fa06030501: 老川被嘎爆了 07/12 15:11
48Fyomo2: 这应该是美国国会对总统权力扩张的不安造成的反扑,川普把 07/12 15:16
49Fyomo2: 别人不敢用的都用了。 07/12 15:16
50Fpoqwmnzx25: 刚刚去7-11买东西 看到好多空军跪在地上 怎么了?????? 07/12 15:26
51Fnicholaslee: 解散国会 07/12 15:26
52Fbightt97018: XDDDD 这怎么很好笑 07/12 15:32
53Fairness0910 (6留言): 川普只是想搞倒几家公司 让自己富人榜排名上升吧 07/12 15:35
54Fyesonline: 艾奥瓦州的大豆和玉米行业的状况就是灾难性的..... 07/12 15:36
55Flop4698: 重点“非约束性提案”…… 07/12 15:38
56Fs72005ming: 爽 07/12 15:44
57Fvmcjormp: 看翻译就知道超中国新闻连翻译修正都懒 07/12 15:49
58Fdewking: 稳 07/12 15:50
59Fbitlife: 你听过艾奥瓦级战舰吗? 听说二战就是在该级战舰上受降 07/12 15:54
60Fcd951753: 我在公园..邻居真的天天换 不变的只有我...995 07/12 15:55
61Fkof70380: 难怪陆股喷了 07/12 16:08
62Fakane5499: 空军快点去公园卡位 07/12 16:12
63Fqq05: 赞 07/12 16:14
64Fhoward172: 哈哈 07/12 16:15
65Fpaojung: 创普 07/12 16:15
66Frodney92: 舔共狗报假新闻 07/12 16:15
67Fhoward172: 假不假,很快就知道 07/12 16:16
68Faquahau: 我川: 干林北空单要被轧爆了 07/12 16:17
69Fhirosimamika: 美国总统有否决国会通过议案的权利,参议院这个没用 07/12 16:18
70Fhirosimamika: 吧,到三普那里就不会通过了 07/12 16:18
71Fhoward172: 但如果通过,会很好笑XDD 07/12 16:21
72Fgracile: 早晚玩火 玩屎自己 07/12 16:22
73Fibetitisnot: 利多出尽可以准备崩了 07/12 16:25
74Ftigerliao: 只是非约束性提案,不到期中选举川普在关税上是不会放 07/12 16:27
75Ftigerliao: 手的 07/12 16:27
76Fjerrylin: 可是川普还是可以继续嘴砲啊 07/12 16:28
77Fknives: 特朗普是谁阿 07/12 16:31
78Frandystock: 消息出来,小道穷也没大涨,只有亚股在自high 07/12 16:31
79Fethan0419: 有钱就是老大 07/12 16:33
80Fanomy: 陆媒在自嗨 07/12 16:36
81Fanomy: 看一下消息来源好吗 最好有这么简单 07/12 16:36
82FWTF55665566 (9留言): 内文明明是说不满对盟国也课税吧 07/12 16:37
83Fkutkin (5留言): 是亚洲国家好像得到救赎一样 07/12 16:37
84FWTF55665566 (9留言): 支那仍是首要大敌 07/12 16:37
85FWTF55665566 (9留言): 对议员来说:支那是最大敌人 这点跟川普一致 07/12 16:38
86Fckw19 (18留言): 其实想也知道 贸易战让美国多少产业受到伤害 07/12 16:38
87FWTF55665566 (9留言): 但是他们不同意川普同时又跟盟国施压 07/12 16:38
88Fckw19 (18留言): Senate Approves Symbolic Resolution in Attempt to Curb 07/12 16:39
89Fckw19 (18留言): President Trump's Mounting Tariffs 07/12 16:39
90Fmagamanzero: 简单说就是有肉大家吃 不要自己吃 07/12 16:40
92Fckw19 (18留言): 想看英文的这里有 07/12 16:40
93Fckw19 (18留言): 翻译:参院通过象征性的决议,抑制川普总统所竖立的关税 07/12 16:42
94Feiw123 (14留言): 哈哈 07/12 16:43
95Fckw19 (18留言): Corker表示,目前关税并不是出于国家安全而实施,而是总统 07/12 16:46
96Fckw19 (18留言): 权力的滥用 07/12 16:46
97Feiw123 (14留言): 话随便他讲 当初整天喊要打中国 就这群人 07/12 16:47
98Feiw123 (14留言): 这法案也只是象征性 没有约束力 07/12 16:47
99Feiw123 (14留言): 因为外交 宪法明文 写就是总统权限 07/12 16:48
100FWTF55665566 (9留言): 反正支那也别想靠这种方式以为能躲过 07/12 16:48
101FWTF55665566 (9留言): 老美的共识都是支那就是最大敌人 吵只是在吵用什么 07/12 16:49
102FWTF55665566 (9留言): 方式搞定而已 07/12 16:49
103Feiw123 (14留言): 大概会开放一些市场 然后躲过吧 07/12 16:49
104Feiw123 (14留言): 说共识的 一定都没有看国外新闻 07/12 16:49
105Fckw19 (18留言): 所以他们要立法 但没这么快就是了 07/12 16:50
106Feiw123 (14留言): 就跟你说 违宪 还立法 07/12 16:50
107Fhumbler: 美国议员不敢得罪中国啦 07/12 16:50
108Feiw123 (14留言): 中国欠打一回事 外交就是国会不能动的区域 07/12 16:50
109Fckw19 (18留言): 这个重点在于 川普是否会为了期中选举而对参院退让 07/12 16:51
110Fkutkin (5留言): 三权分立 国会只能直接把总统换掉 07/12 16:51
111Feiw123 (14留言): 三普也是有本钱把国会翻了 直接开除穆勒 美国宪政就毁了 07/12 16:51
112Fckw19 (18留言): 共和党若在期中选举失利 未来川普要推动很多事情更难了 07/12 16:51
113Feiw123 (14留言): 这是民主党自己讲的 07/12 16:51
114Fkutkin (5留言): 不能指手划脚 07/12 16:51
115Feiw123 (14留言): 这个要球 只要中国肯投降输一半 三普大概会买单吧 07/12 16:52
116FWTF55665566 (9留言): 反正这都不影响老美反支那的大战略 07/12 16:53
117Fckw19 (18留言): 新闻奖的 不是我讲的 07/12 16:53
118Feiw123 (14留言): 当然影响阿 怎不影响 07/12 16:53
119Fckw19 (18留言): 田纳西州共和党参议员柯尔克(Bob Corker)指出,在11日的 07/12 16:55
120Fckw19 (18留言): 程序性投票通过后,下一步就是希望能通过国会立法,让国会 07/12 16:55
121Fckw19 (18留言): 能重新取得管理和征收关税的权力。 07/12 16:56
122Fckw19 (18留言): 你如果有在follow川普twiter,大概可以看得出来美国现在蛮 07/12 16:56
123Fckw19 (18留言): 分裂的 07/12 16:56
124FWTF55665566 (9留言): 分裂的只是反川跟挺川派 这早就知道了 07/12 16:59
125Feiw123 (14留言): 民主党还分成 三派 你不知道喔 ㄏㄏ 07/12 17:00
126Feiw123 (14留言): 应该说 建制派 和三普党 这样分 07/12 17:01
127Faegis43210: 目前当然是支持会让股市波动变大的川普 07/12 17:04
128Faegis43210: 独裁是最可怕的,削弱习近平的权力是普世价值 07/12 17:06
129Fkutkin (5留言): 国会这样不就自肥 07/12 17:08
130FNoemen: 糟糕! 股版觉青不能高潮了!? 07/12 17:10
131Faquahau: 美提案通过柯p难道不用负责吗,柯p下台 07/12 17:31
132Fhb0922: 7.77从高潮变软屌 07/12 17:35
133Fjohnny9667 (5留言): 非约束性提案 07/12 17:39
134Fjohnny9667 (5留言): 笑死,你们高潮太快了 07/12 17:39
135Fairness0910 (6留言): 废话,提案当然没有约束性阿 但提案过了就会开始立法 07/12 17:43
136Fairness0910 (6留言): 虽然不知道会立到什么时候 国会对新法会不会通过 07/12 17:44
137Fairness0910 (6留言): 但川普一定多多少少会收敛一点吧 07/12 17:45
138Fairness0910 (6留言): 除了ptt股板空军跟台湾仇中觉青 到底还有谁喜欢他 07/12 17:46
139Fairness0910 (6留言): 这样乱搞? 07/12 17:47
140Fpsee: 仇中觉青等等再po个10篇川普关税鸭鸭精 07/12 17:52
141Fjohnny9667 (5留言): 仇中觉青? 又再扎稻草人 此提案主因是欧加墨的钢铝关 07/12 18:04
142Fjohnny9667 (5留言): 税 07/12 18:04
143Fjohnny9667 (5留言): 就说你们高潮的太快 还不信 07/12 18:05
144Fmhlee: 没约束力的东西五毛在爽什么 07/12 18:17
145Fewayne: 立法过了的然后呢?听说那个台湾旅行法也通过了,怎么大家 07/12 18:17
146Fewayne: 都说通过了也没用? 07/12 18:17
147Fckw19 (18留言): 各种贴标签 XDDDDD 伟哉股板酸民 07/12 18:21
148Ftsuneo: 来自台湾的新闻:川普..来自对岸的新闻:特朗普 07/12 18:34
149Fmirac1e: 笑死这哪招 可以用这样整空单的吗 XD 07/12 18:46
150FYJJ: 新闻有异 原文跟本是针对盟友非… 07/12 18:47
151FMathefucker: 高潮的人有没有想过美国是总统制,你立一个法案要把 07/12 18:51
152FMathefucker: 总统拥有的权力拔掉,最好是有这么简单 07/12 18:51
153Fspawnpepsi: 看川普今晚怎么弄国会 07/12 18:51
154Fmhlee: 其实是要川普别开地图炮 把盟友 加拿大欧盟等国都课高关税 07/12 18:52
155Fspawnpepsi: 公开拔掉狮子的鬃毛,下场绝对是两败俱伤 07/12 18:54
156Fberryc: 说中美贸易战对台湾是利多的 脸腄腄了 07/12 19:02
157Fberryc: 肿肿 07/12 19:03
158Fsprucewind: 川普连盟友加拿大也开征就毛毛的,根本是偷放空自己赚 07/12 19:04
159FMathefucker: 而且对财政有关的动议是众议院的权利,参议院插啥花 07/12 19:06
160FMathefucker: 啊?????不要因为你要选举就乱插花 07/12 19:06
161Fchewei55: 欧洲过关,中国继续GG 07/12 19:39
162Frj486: 但目前为止川普策略好像是成功的说 07/12 20:42
163FGENU: 美国匪谍 07/12 21:53
164Fkrthree: 川普表面上一定要全面开战啊。然后在跟其他人和好。最后 07/12 22:49
165Fkrthree: 只剩中国没和好。那是谁的问题?当然是中国的问题啊。xd 07/12 22:49
166Fschooldance: 川普孙子兵法一定读很熟 07/12 22:56
167FSinkage: 推kr3 川普真的很会 07/12 23:34
168FhelloI: 楼下还有纸箱可以借我吗?? 07/12 23:34
169Fjyekid: 别高潮了 之前川普就威胁要以国家安全为由加征关税 07/13 00:47
170Fjyekid: 美国国会只是限制这项权利 告诫他不能乱用 07/13 00:48
171FCruiseTom: 白痴 07/13 00:55
172Fshortoneal: 帐篷便宜卖,意者私密 07/13 01:26
173Fsam352306: 楼上全收,另租水岸第一排场地长租佳。 07/13 01:50
174Frichjf: 非约束性提案 07/13 06:56
175Fa176893: 看看原文吧,没有说解除对中国的制裁 07/13 08:25
176Flise1017: 说个笑话:国会可以限制总统的行政权 07/13 11:59
177Fkraven: 美国议员:我收了好多钱,好爽喔 07/13 13:14
178Fpkh1234: 完了 好想笑 07/13 19:56
看更多 roxiang 的文章,或回到 stock 看板

Your comment